| time (UTC) | temp C | wind direction | speed KPH | gust KPH | rain 1hr cm | rain 24hr cm | rain mn cm | humidity % | barometer mb |
| 20260509024605 | 15 | 0 | 0.0 | 1.6 | 0.00 | 0.00 | 0.00 | 57 | 1013.6 |
| 20260509024058 | 15 | 0 | 0.0 | 0.0 | 0.00 | 0.00 | 0.00 | 57 | 1013.7 |
| 20260509023600 | 15 | 0 | 0.0 | 1.6 | 0.00 | 0.00 | 0.00 | 57 | 1013.7 |
| 20260509023056 | 15 | 0 | 0.0 | 1.6 | 0.00 | 0.00 | 0.00 | 57 | 1013.6 |
| 20260509022602 | 15 | 0 | 0.0 | 0.0 | 0.00 | 0.00 | 0.00 | 57 | 1013.5 |
| 20260509022059 | 15 | 0 | 0.0 | 1.6 | 0.00 | 0.00 | 0.00 | 57 | 1013.6 |
| 20260509021600 | 15 | 0 | 0.0 | 1.6 | 0.00 | 0.00 | 0.00 | 56 | 1013.6 |
| 20260509021059 | 15 | 0 | 0.0 | 1.6 | 0.00 | 0.00 | 0.00 | 57 | 1013.4 |
| 20260509020556 | 15 | 0 | 0.0 | 1.6 | 0.00 | 0.00 | 0.00 | 57 | 1013.5 |
| 20260509020110 | 15 | 0 | 0.0 | 1.6 | 0.00 | 0.00 | 0.00 | 57 | 1013.6 |
| 20260509015558 | 15 | 0 | 0.0 | 0.0 | 0.00 | 0.00 | 0.00 | 58 | 1013.5 |
| 20260509015055 | 15 | 0 | 0.0 | 0.0 | 0.00 | 0.00 | 0.00 | 58 | 1013.4 |
| 20260509014558 | 15 | 0 | 0.0 | 0.0 | 0.00 | 0.00 | 0.00 | 58 | 1013.5 |
| 20260509014102 | 15 | 0 | 0.0 | 0.0 | 0.00 | 0.00 | 0.00 | 58 | 1013.4 |
| 20260509013558 | 15 | 0 | 0.0 | 0.0 | 0.00 | 0.00 | 0.00 | 57 | 1013.3 |
| 20260509013100 | 15 | 0 | 0.0 | 1.6 | 0.00 | 0.00 | 0.00 | 57 | 1013.2 |
| 20260509012558 | 15 | 0 | 0.0 | 1.6 | 0.00 | 0.00 | 0.00 | 57 | 1013.2 |
| 20260509012058 | 15 | 0 | 0.0 | 1.6 | 0.00 | 0.00 | 0.00 | 57 | 1013.2 |
| 20260509011601 | 15 | 0 | 0.0 | 3.2 | 0.00 | 0.00 | 0.00 | 57 | 1013.2 |
| 20260509011102 | 15 | 0 | 0.0 | 3.2 | 0.00 | 0.00 | 0.00 | 57 | 1013.3 |
| 20260509010601 | 15 | 238 | 0.0 | 3.2 | 0.00 | 0.00 | 0.00 | 57 | 1013.1 |
| 20260509005556 | 16 | 0 | 0.0 | 0.0 | 0.00 | 0.00 | 0.00 | 55 | 1013.3 |
| 20260509005058 | 16 | 0 | 0.0 | 0.0 | 0.00 | 0.00 | 0.00 | 55 | 1013.2 |
| 20260509004557 | 16 | 0 | 0.0 | 0.0 | 0.00 | 0.00 | 0.00 | 55 | 1013.2 |
| 20260509004056 | 16 | 0 | 0.0 | 1.6 | 0.00 | 0.00 | 0.00 | 54 | 1013.1 |
| 20260509003556 | 16 | 0 | 0.0 | 1.6 | 0.00 | 0.00 | 0.00 | 54 | 1013.1 |
| 20260509003102 | 16 | 238 | 0.0 | 1.6 | 0.00 | 0.00 | 0.00 | 54 | 1013.1 |
| 20260509002558 | 17 | 0 | 0.0 | 1.6 | 0.00 | 0.00 | 0.00 | 54 | 1013.1 |
| 20260509002058 | 17 | 0 | 0.0 | 0.0 | 0.00 | 0.00 | 0.00 | 55 | 1013.1 |
| 20260509001557 | 17 | 0 | 0.0 | 1.6 | 0.00 | 0.00 | 0.00 | 55 | 1013.1 |
| 20260509001058 | 17 | 0 | 0.0 | 1.6 | 0.00 | 0.00 | 0.00 | 55 | 1013.0 |
| 20260509000558 | 17 | 0 | 0.0 | 1.6 | 0.00 | 0.00 | 0.00 | 54 | 1013.0 |
| 20260509000055 | 17 | 0 | 0.0 | 1.6 | 0.00 | 0.00 | 0.00 | 55 | 1013.1 |
| 20260508235557 | 18 | 0 | 0.0 | 3.2 | 0.00 | 0.00 | 0.00 | 54 | 1013.3 |
| 20260508235055 | 18 | 0 | 0.0 | 6.4 | 0.00 | 0.00 | 0.00 | 54 | 1013.2 |
| 20260508234604 | 18 | 0 | 0.0 | 6.4 | 0.00 | 0.00 | 0.00 | 55 | 1013.3 |
| 20260508234056 | 18 | 0 | 1.6 | 6.4 | 0.00 | 0.00 | 0.00 | 53 | 1013.2 |
| 20260508233558 | 18 | 0 | 0.0 | 4.8 | 0.00 | 0.00 | 0.00 | 54 | 1013.3 |
| 20260508233105 | 18 | 0 | 0.0 | 6.4 | 0.00 | 0.00 | 0.00 | 55 | 1013.1 |
| 20260508232558 | 18 | 227 | 1.6 | 6.4 | 0.00 | 0.00 | 0.00 | 54 | 1013.2 |
| 20260508232058 | 19 | 106 | 0.0 | 4.8 | 0.00 | 0.00 | 0.00 | 53 | 1013.0 |
| 20260508231600 | 19 | 0 | 0.0 | 6.4 | 0.00 | 0.00 | 0.00 | 52 | 1013.0 |
| 20260508231058 | 19 | 0 | 0.0 | 6.4 | 0.00 | 0.00 | 0.00 | 53 | 1013.0 |
| 20260508230559 | 19 | 0 | 1.6 | 6.4 | 0.00 | 0.00 | 0.00 | 52 | 1013.1 |
| 20260508230057 | 20 | 0 | 0.0 | 6.4 | 0.00 | 0.00 | 0.00 | 52 | 1013.1 |
| 20260508225558 | 20 | 234 | 0.0 | 6.4 | 0.00 | 0.00 | 0.00 | 52 | 1013.0 |
| 20260508225058 | 20 | 189 | 0.0 | 4.8 | 0.00 | 0.00 | 0.00 | 54 | 1013.0 |
| 20260508224558 | 20 | 0 | 0.0 | 4.8 | 0.00 | 0.00 | 0.00 | 51 | 1013.1 |
| 20260508224057 | 20 | 121 | 0.0 | 4.8 | 0.00 | 0.00 | 0.00 | 50 | 1013.2 |
| 20260508223557 | 20 | 0 | 0.0 | 9.7 | 0.00 | 0.00 | 0.00 | 52 | 1013.2 |
| 20260508223058 | 20 | 219 | 1.6 | 9.7 | 0.00 | 0.00 | 0.00 | 48 | 1013.2 |
| 20260508222559 | 20 | 159 | 1.6 | 8.0 | 0.00 | 0.00 | 0.00 | 49 | 1013.2 |
| 20260508222100 | 21 | 168 | 1.6 | 6.4 | 0.00 | 0.00 | 0.00 | 47 | 1013.3 |
| 20260508221558 | 21 | 221 | 1.6 | 8.0 | 0.00 | 0.00 | 0.00 | 47 | 1013.2 |
| 20260508221057 | 20 | 43 | 1.6 | 8.0 | 0.00 | 0.00 | 0.00 | 50 | 1013.1 |
| 20260508220602 | 21 | 0 | 1.6 | 8.0 | 0.00 | 0.00 | 0.00 | 47 | 1013.2 |
| 20260508220056 | 21 | 217 | 1.6 | 8.0 | 0.00 | 0.00 | 0.00 | 48 | 1013.1 |
| 20260508215558 | 21 | 163 | 1.6 | 6.4 | 0.00 | 0.00 | 0.00 | 48 | 1013.2 |
| 20260508215058 | 21 | 16 | 1.6 | 6.4 | 0.00 | 0.00 | 0.00 | 50 | 1013.2 |
| 20260508214559 | 20 | 192 | 1.6 | 6.4 | 0.00 | 0.00 | 0.00 | 47 | 1013.2 |
| 20260508214057 | 20 | 9 | 1.6 | 8.0 | 0.00 | 0.00 | 0.00 | 46 | 1013.3 |
| 20260508213557 | 20 | 182 | 1.6 | 11.3 | 0.00 | 0.00 | 0.00 | 46 | 1013.4 |
| 20260508213059 | 20 | 219 | 1.6 | 11.3 | 0.00 | 0.00 | 0.00 | 47 | 1013.3 |
| 20260508212558 | 20 | 200 | 1.6 | 12.9 | 0.00 | 0.00 | 0.00 | 50 | 1013.3 |
| 20260508212057 | 20 | 76 | 0.0 | 14.5 | 0.00 | 0.00 | 0.00 | 49 | 1013.2 |
| 20260508211557 | 20 | 342 | 6.4 | 14.5 | 0.00 | 0.00 | 0.00 | 48 | 1013.1 |
| 20260508211059 | 21 | 184 | 4.8 | 12.9 | 0.00 | 0.00 | 0.00 | 50 | 1013.1 |
| 20260508210559 | 21 | 223 | 1.6 | 6.4 | 0.00 | 0.00 | 0.00 | 48 | 1013.2 |
| 20260508210059 | 21 | 176 | 1.6 | 6.4 | 0.00 | 0.00 | 0.00 | 46 | 1013.3 |
| 20260508205557 | 21 | 322 | 0.0 | 9.7 | 0.00 | 0.00 | 0.00 | 48 | 1013.4 |
| 20260508205057 | 21 | 342 | 0.0 | 9.7 | 0.00 | 0.00 | 0.00 | 51 | 1013.4 |
| 20260508204557 | 20 | 60 | 1.6 | 6.4 | 0.00 | 0.00 | 0.00 | 47 | 1013.4 |
| 20260508204102 | 20 | 235 | 0.0 | 6.4 | 0.00 | 0.00 | 0.00 | 47 | 1013.4 |
| 20260508203558 | 20 | 196 | 3.2 | 11.3 | 0.00 | 0.00 | 0.00 | 47 | 1013.4 |
| 20260508203056 | 19 | 187 | 1.6 | 14.5 | 0.00 | 0.00 | 0.00 | 46 | 1013.4 |
| 20260508202601 | 20 | 184 | 8.0 | 14.5 | 0.00 | 0.00 | 0.00 | 47 | 1013.6 |
| 20260508202057 | 20 | 153 | 3.2 | 12.9 | 0.00 | 0.00 | 0.00 | 47 | 1013.5 |
| 20260508201558 | 20 | 138 | 3.2 | 12.9 | 0.00 | 0.00 | 0.00 | 47 | 1013.6 |
| 20260508201058 | 20 | 171 | 4.8 | 11.3 | 0.00 | 0.00 | 0.00 | 48 | 1013.8 |
| 20260508200557 | 20 | 212 | 1.6 | 9.7 | 0.00 | 0.00 | 0.00 | 49 | 1013.8 |
| 20260508200057 | 20 | 146 | 3.2 | 9.7 | 0.00 | 0.00 | 0.00 | 49 | 1013.9 |
| 20260508195558 | 20 | 170 | 1.6 | 9.7 | 0.00 | 0.00 | 0.00 | 45 | 1014.0 |
| 20260508195057 | 20 | 0 | 1.6 | 11.3 | 0.00 | 0.00 | 0.00 | 48 | 1014.3 |
| 20260508194607 | 20 | 171 | 4.8 | 11.3 | 0.00 | 0.00 | 0.00 | 48 | 1014.4 |
| 20260508194057 | 19 | 160 | 0.0 | 24.1 | 0.00 | 0.00 | 0.00 | 45 | 1014.5 |
| 20260508193558 | 19 | 30 | 8.0 | 24.1 | 0.00 | 0.00 | 0.00 | 46 | 1014.9 |
| 20260508193119 | 19 | 219 | 4.8 | 14.5 | 0.00 | 0.00 | 0.00 | 48 | 1014.9 |
| 20260508192557 | 19 | 113 | 3.2 | 14.5 | 0.00 | 0.00 | 0.00 | 51 | 1015.0 |
| 20260508192100 | 18 | 77 | 4.8 | 14.5 | 0.00 | 0.00 | 0.00 | 52 | 1015.0 |
| 20260508191607 | 18 | 30 | 3.2 | 8.0 | 0.00 | 0.00 | 0.00 | 48 | 1015.2 |
| 20260508191057 | 18 | 0 | 1.6 | 14.5 | 0.00 | 0.00 | 0.00 | 45 | 1015.2 |
| 20260508190557 | 18 | 84 | 1.6 | 14.5 | 0.00 | 0.00 | 0.00 | 47 | 1015.3 |
| 20260508190113 | 18 | 175 | 6.4 | 17.7 | 0.00 | 0.00 | 0.00 | 45 | 1015.3 |
| 20260508185556 | 18 | 198 | 9.7 | 17.7 | 0.00 | 0.00 | 0.00 | 45 | 1015.3 |
| 20260508185057 | 18 | 167 | 1.6 | 12.9 | 0.00 | 0.00 | 0.00 | 49 | 1015.2 |
| 20260508184608 | 18 | 162 | 8.0 | 12.9 | 0.00 | 0.00 | 0.00 | 50 | 1015.4 |
| 20260508184058 | 18 | 175 | 3.2 | 12.9 | 0.00 | 0.00 | 0.00 | 50 | 1015.6 |
| 20260508183557 | 18 | 170 | 3.2 | 12.9 | 0.00 | 0.00 | 0.00 | 45 | 1015.6 |
| 20260508183100 | 18 | 90 | 1.6 | 12.9 | 0.00 | 0.00 | 0.00 | 47 | 1015.5 |
| 20260508182559 | 18 | 0 | 4.8 | 12.9 | 0.00 | 0.00 | 0.00 | 49 | 1015.7 |
| 20260508182057 | 18 | 0 | 1.6 | 14.5 | 0.00 | 0.00 | 0.00 | 48 | 1015.8 |
| 20260508181604 | 17 | 140 | 6.4 | 14.5 | 0.00 | 0.00 | 0.00 | 44 | 1015.9 |
| 20260508181057 | 17 | 120 | 6.4 | 16.1 | 0.00 | 0.00 | 0.00 | 47 | 1015.8 |
| 20260508180600 | 17 | 157 | 3.2 | 16.1 | 0.00 | 0.00 | 0.00 | 49 | 1015.8 |
| 20260508175557 | 17 | 139 | 4.8 | 16.1 | 0.00 | 0.00 | 0.00 | 45 | 1015.9 |
| 20260508175058 | 17 | 124 | 4.8 | 16.1 | 0.00 | 0.00 | 0.00 | 48 | 1016.0 |
| 20260508174555 | 17 | 142 | 4.8 | 12.9 | 0.00 | 0.00 | 0.00 | 44 | 1016.0 |
| 20260508174058 | 17 | 149 | 4.8 | 12.9 | 0.00 | 0.00 | 0.00 | 49 | 1016.0 |
| 20260508173557 | 17 | 83 | 1.6 | 9.7 | 0.00 | 0.00 | 0.00 | 46 | 1016.0 |
| 20260508173058 | 17 | 175 | 4.8 | 9.7 | 0.00 | 0.00 | 0.00 | 41 | 1016.2 |
| 20260508172559 | 17 | 117 | 1.6 | 8.0 | 0.00 | 0.00 | 0.00 | 48 | 1016.3 |
| 20260508172059 | 17 | 327 | 3.2 | 8.0 | 0.00 | 0.00 | 0.00 | 43 | 1016.6 |
| 20260508171556 | 17 | 167 | 1.6 | 6.4 | 0.00 | 0.00 | 0.00 | 47 | 1016.6 |
| 20260508171057 | 17 | 352 | 3.2 | 6.4 | 0.00 | 0.00 | 0.00 | 49 | 1016.7 |
| 20260508170557 | 16 | 0 | 1.6 | 8.0 | 0.00 | 0.00 | 0.00 | 45 | 1016.6 |
| 20260508170059 | 16 | 30 | 1.6 | 9.7 | 0.00 | 0.00 | 0.00 | 43 | 1016.8 |
| 20260508165558 | 16 | 326 | 1.6 | 12.9 | 0.00 | 0.03 | 0.00 | 45 | 1017.0 |
| 20260508165057 | 16 | 0 | 4.8 | 12.9 | 0.00 | 0.03 | 0.00 | 46 | 1017.0 |
| 20260508164557 | 16 | 78 | 6.4 | 11.3 | 0.00 | 0.03 | 0.00 | 46 | 1017.3 |
| 20260508164057 | 16 | 79 | 4.8 | 11.3 | 0.00 | 0.03 | 0.00 | 47 | 1017.3 |
| 20260508163557 | 16 | 98 | 3.2 | 12.9 | 0.00 | 0.03 | 0.00 | 51 | 1017.4 |
| 20260508163106 | 16 | 96 | 1.6 | 12.9 | 0.00 | 0.03 | 0.00 | 49 | 1017.4 |
| 20260508162557 | 16 | 97 | 8.0 | 12.9 | 0.00 | 0.03 | 0.00 | 48 | 1017.4 |
| 20260508162057 | 16 | 78 | 3.2 | 16.1 | 0.00 | 0.03 | 0.00 | 52 | 1017.5 |
| 20260508161559 | 16 | 37 | 9.7 | 16.1 | 0.00 | 0.03 | 0.00 | 47 | 1017.5 |
| 20260508161059 | 16 | 0 | 1.6 | 14.5 | 0.00 | 0.03 | 0.00 | 52 | 1017.6 |
| 20260508160556 | 15 | 43 | 3.2 | 14.5 | 0.00 | 0.03 | 0.00 | 53 | 1017.6 |
| 20260508160058 | 16 | 99 | 6.4 | 14.5 | 0.00 | 0.03 | 0.00 | 59 | 1017.7 |
| 20260508155559 | 15 | 76 | 1.6 | 9.7 | 0.00 | 0.03 | 0.00 | 55 | 1017.7 |
| 20260508155059 | 15 | 140 | 4.8 | 16.1 | 0.00 | 0.03 | 0.00 | 54 | 1017.8 |
| 20260508154558 | 15 | 104 | 6.4 | 16.1 | 0.00 | 0.03 | 0.00 | 53 | 1018.0 |
| 20260508154057 | 15 | 25 | 4.8 | 14.5 | 0.00 | 0.03 | 0.00 | 53 | 1018.0 |
| 20260508153600 | 15 | 107 | 3.2 | 12.9 | 0.00 | 0.03 | 0.00 | 50 | 1018.0 |
| 20260508153108 | 15 | 96 | 4.8 | 12.9 | 0.00 | 0.03 | 0.00 | 60 | 1018.0 |
| 20260508152601 | 15 | 73 | 6.4 | 12.9 | 0.00 | 0.03 | 0.00 | 54 | 1018.2 |
| 20260508152057 | 15 | 57 | 4.8 | 12.9 | 0.00 | 0.03 | 0.00 | 52 | 1018.2 |
| 20260508151558 | 15 | 103 | 8.0 | 12.9 | 0.00 | 0.03 | 0.00 | 53 | 1018.2 |
| 20260508151057 | 15 | 61 | 4.8 | 14.5 | 0.00 | 0.03 | 0.00 | 54 | 1018.1 |
| 20260508150557 | 15 | 139 | 8.0 | 14.5 | 0.00 | 0.03 | 0.00 | 55 | 1018.2 |
| 20260508150059 | 15 | 101 | 4.8 | 12.9 | 0.00 | 0.03 | 0.00 | 60 | 1018.1 |
| 20260508145600 | 15 | 123 | 3.2 | 11.3 | 0.00 | 0.08 | 0.00 | 55 | 1018.0 |
| 20260508145057 | 14 | 107 | 4.8 | 14.5 | 0.00 | 0.08 | 0.00 | 52 | 1018.2 |
| 20260508144556 | 14 | 55 | 6.4 | 14.5 | 0.00 | 0.08 | 0.00 | 55 | 1018.2 |
| 20260508144057 | 15 | 92 | 6.4 | 14.5 | 0.00 | 0.08 | 0.00 | 56 | 1018.2 |
| 20260508143558 | 14 | 109 | 4.8 | 12.9 | 0.00 | 0.08 | 0.00 | 59 | 1018.1 |
| 20260508143116 | 14 | 58 | 3.2 | 11.3 | 0.00 | 0.08 | 0.00 | 54 | 1018.3 |
| 20260508142558 | 14 | 74 | 6.4 | 11.3 | 0.00 | 0.08 | 0.00 | 55 | 1018.2 |
| 20260508142058 | 14 | 133 | 4.8 | 11.3 | 0.00 | 0.08 | 0.00 | 58 | 1018.3 |
| 20260508141606 | 14 | 92 | 3.2 | 11.3 | 0.00 | 0.08 | 0.00 | 64 | 1018.4 |
| 20260508141058 | 14 | 52 | 3.2 | 9.7 | 0.00 | 0.08 | 0.00 | 68 | 1018.3 |
| 20260508140558 | 14 | 149 | 3.2 | 9.7 | 0.00 | 0.08 | 0.00 | 69 | 1018.4 |
| 20260508140119 | 14 | 81 | 1.6 | 4.8 | 0.00 | 0.08 | 0.00 | 72 | 1018.3 |
| 20260508135559 | 13 | 94 | 0.0 | 4.8 | 0.00 | 0.13 | 0.00 | 71 | 1018.3 |
| 20260508135057 | 13 | 94 | 1.6 | 4.8 | 0.00 | 0.13 | 0.00 | 71 | 1018.3 |
| 20260508134556 | 13 | 0 | 0.0 | 4.8 | 0.00 | 0.13 | 0.00 | 75 | 1018.4 |
| 20260508134057 | 12 | 104 | 1.6 | 6.4 | 0.00 | 0.13 | 0.00 | 76 | 1018.4 |
| 20260508133557 | 12 | 76 | 3.2 | 6.4 | 0.00 | 0.13 | 0.00 | 78 | 1018.3 |
| 20260508133103 | 12 | 96 | 1.6 | 6.4 | 0.00 | 0.13 | 0.00 | 81 | 1018.2 |
| 20260508132557 | 12 | 96 | 0.0 | 6.4 | 0.00 | 0.13 | 0.00 | 84 | 1018.3 |
| 20260508132057 | 12 | 96 | 3.2 | 9.7 | 0.00 | 0.13 | 0.00 | 83 | 1018.4 |
| 20260508131556 | 12 | 141 | 1.6 | 9.7 | 0.00 | 0.13 | 0.00 | 86 | 1018.1 |
| 20260508131058 | 12 | 97 | 1.6 | 9.7 | 0.00 | 0.13 | 0.00 | 85 | 1018.2 |
| 20260508130558 | 12 | 184 | 3.2 | 9.7 | 0.00 | 0.13 | 0.00 | 86 | 1018.3 |
| 20260508130055 | 11 | 0 | 1.6 | 6.4 | 0.00 | 0.13 | 0.00 | 87 | 1018.3 |
| 20260508125601 | 11 | 184 | 0.0 | 6.4 | 0.00 | 0.15 | 0.00 | 87 | 1018.2 |
| 20260508125057 | 11 | 178 | 1.6 | 4.8 | 0.00 | 0.15 | 0.00 | 86 | 1018.3 |
| 20260508124558 | 11 | 96 | 1.6 | 4.8 | 0.00 | 0.15 | 0.00 | 86 | 1018.4 |
| 20260508124057 | 11 | 96 | 1.6 | 4.8 | 0.00 | 0.15 | 0.00 | 85 | 1018.3 |
| 20260508123559 | 11 | 111 | 1.6 | 4.8 | 0.00 | 0.15 | 0.00 | 85 | 1018.4 |
| 20260508123059 | 11 | 0 | 1.6 | 4.8 | 0.00 | 0.15 | 0.00 | 84 | 1018.3 |
| 20260508122559 | 11 | 111 | 1.6 | 4.8 | 0.00 | 0.15 | 0.00 | 86 | 1018.3 |
| 20260508122058 | 10 | 111 | 1.6 | 4.8 | 0.00 | 0.15 | 0.00 | 86 | 1018.1 |
| 20260508121559 | 10 | 115 | 1.6 | 4.8 | 0.00 | 0.15 | 0.00 | 87 | 1018.0 |
| 20260508121058 | 10 | 0 | 1.6 | 4.8 | 0.00 | 0.15 | 0.00 | 88 | 1018.0 |
| 20260508120558 | 10 | 153 | 1.6 | 4.8 | 0.00 | 0.15 | 0.00 | 88 | 1018.0 |
| 20260508120112 | 10 | 187 | 1.6 | 4.8 | 0.00 | 0.15 | 0.00 | 88 | 1017.9 |
| 20260508115602 | 10 | 187 | 1.6 | 4.8 | 0.00 | 0.15 | 0.00 | 88 | 1017.7 |
| 20260508115059 | 10 | 188 | 0.0 | 3.2 | 0.00 | 0.15 | 0.00 | 89 | 1017.7 |
| 20260508114603 | 10 | 0 | 0.0 | 0.0 | 0.00 | 0.15 | 0.00 | 90 | 1017.6 |
| 20260508114059 | 10 | 0 | 0.0 | 0.0 | 0.00 | 0.15 | 0.00 | 90 | 1017.5 |
| 20260508113555 | 10 | 0 | 0.0 | 0.0 | 0.00 | 0.15 | 0.00 | 91 | 1017.4 |
| 20260508113102 | 10 | 0 | 0.0 | 0.0 | 0.00 | 0.15 | 0.00 | 92 | 1017.4 |
| 20260508112559 | 9 | 0 | 0.0 | 0.0 | 0.00 | 0.15 | 0.00 | 92 | 1017.3 |
| 20260508112058 | 9 | 0 | 0.0 | 0.0 | 0.00 | 0.15 | 0.00 | 90 | 1017.2 |
| 20260508111556 | 9 | 0 | 0.0 | 0.0 | 0.00 | 0.15 | 0.00 | 90 | 1017.3 |
| 20260508111058 | 9 | 0 | 0.0 | 0.0 | 0.00 | 0.15 | 0.00 | 89 | 1017.0 |
| 20260508110558 | 9 | 0 | 0.0 | 0.0 | 0.00 | 0.15 | 0.00 | 90 | 1017.0 |
| 20260508110105 | 9 | 0 | 0.0 | 0.0 | 0.00 | 0.15 | 0.00 | 90 | 1016.8 |
| 20260508105557 | 9 | 0 | 0.0 | 0.0 | 0.00 | 0.18 | 0.00 | 90 | 1016.8 |
| 20260508105057 | 9 | 0 | 0.0 | 0.0 | 0.00 | 0.18 | 0.00 | 90 | 1016.9 |
| 20260508104559 | 9 | 0 | 0.0 | 0.0 | 0.00 | 0.18 | 0.00 | 89 | 1016.8 |
| 20260508104059 | 9 | 0 | 0.0 | 0.0 | 0.00 | 0.18 | 0.00 | 89 | 1016.8 |
| 20260508103559 | 9 | 0 | 0.0 | 0.0 | 0.00 | 0.18 | 0.00 | 89 | 1016.6 |
| 20260508103059 | 9 | 0 | 0.0 | 0.0 | 0.00 | 0.18 | 0.00 | 89 | 1016.6 |
| 20260508102558 | 9 | 0 | 0.0 | 0.0 | 0.00 | 0.18 | 0.00 | 90 | 1016.7 |
| 20260508102100 | 9 | 0 | 0.0 | 0.0 | 0.00 | 0.18 | 0.00 | 89 | 1016.6 |
| 20260508101557 | 9 | 0 | 0.0 | 0.0 | 0.00 | 0.18 | 0.00 | 89 | 1016.6 |
| 20260508101059 | 10 | 0 | 0.0 | 0.0 | 0.00 | 0.18 | 0.00 | 89 | 1016.5 |
| 20260508100600 | 10 | 0 | 0.0 | 0.0 | 0.00 | 0.18 | 0.00 | 88 | 1016.5 |
| 20260508100129 | 10 | 0 | 0.0 | 0.0 | 0.00 | 0.18 | 0.00 | 88 | 1016.4 |
| 20260508095558 | 10 | 0 | 0.0 | 0.0 | 0.00 | 0.20 | 0.00 | 87 | 1016.4 |
| 20260508095057 | 10 | 0 | 0.0 | 3.2 | 0.00 | 0.20 | 0.00 | 87 | 1016.3 |
| 20260508094557 | 10 | 0 | 0.0 | 4.8 | 0.00 | 0.20 | 0.00 | 88 | 1016.4 |
| 20260508094059 | 10 | 188 | 1.6 | 4.8 | 0.00 | 0.20 | 0.00 | 88 | 1016.3 |
| 20260508093558 | 10 | 188 | 1.6 | 4.8 | 0.00 | 0.20 | 0.00 | 88 | 1016.3 |
| 20260508093057 | 10 | 188 | 0.0 | 3.2 | 0.00 | 0.20 | 0.00 | 87 | 1016.2 |
| 20260508092557 | 10 | 0 | 0.0 | 3.2 | 0.00 | 0.20 | 0.00 | 86 | 1016.3 |
| 20260508092059 | 10 | 0 | 0.0 | 6.4 | 0.00 | 0.20 | 0.00 | 86 | 1016.1 |
| 20260508091610 | 11 | 0 | 0.0 | 6.4 | 0.00 | 0.20 | 0.00 | 85 | 1016.2 |
| 20260508091059 | 10 | 188 | 3.2 | 6.4 | 0.00 | 0.20 | 0.00 | 84 | 1016.0 |
| 20260508090600 | 10 | 177 | 0.0 | 0.0 | 0.00 | 0.20 | 0.00 | 79 | 1016.3 |
| 20260508090059 | 10 | 0 | 0.0 | 0.0 | 0.00 | 0.20 | 0.00 | 73 | 1016.2 |
| 20260508085558 | 10 | 0 | 0.0 | 0.0 | 0.00 | 0.28 | 0.00 | 72 | 1016.2 |
| 20260508085057 | 10 | 0 | 0.0 | 0.0 | 0.00 | 0.28 | 0.00 | 72 | 1016.2 |
| 20260508084558 | 10 | 0 | 0.0 | 0.0 | 0.00 | 0.28 | 0.00 | 71 | 1016.2 |
| 20260508084057 | 10 | 0 | 0.0 | 1.6 | 0.00 | 0.28 | 0.00 | 71 | 1016.2 |
| 20260508083557 | 10 | 0 | 0.0 | 1.6 | 0.00 | 0.28 | 0.00 | 71 | 1016.2 |
| 20260508083058 | 11 | 0 | 0.0 | 1.6 | 0.00 | 0.28 | 0.00 | 70 | 1016.2 |
| 20260508082557 | 11 | 0 | 0.0 | 1.6 | 0.00 | 0.28 | 0.00 | 70 | 1016.3 |
| 20260508082059 | 10 | 0 | 0.0 | 1.6 | 0.00 | 0.28 | 0.00 | 72 | 1016.0 |
| 20260508081614 | 10 | 0 | 0.0 | 1.6 | 0.00 | 0.28 | 0.00 | 74 | 1016.1 |
| 20260508081057 | 11 | 0 | 0.0 | 1.6 | 0.00 | 0.28 | 0.00 | 78 | 1016.1 |
| 20260508080557 | 11 | 0 | 0.0 | 0.0 | 0.00 | 0.28 | 0.00 | 81 | 1016.0 |
| 20260508080101 | 11 | 0 | 0.0 | 0.0 | 0.00 | 0.28 | 0.00 | 82 | 1016.1 |
| 20260508075559 | 11 | 0 | 0.0 | 0.0 | 0.00 | 0.28 | 0.00 | 82 | 1016.1 |
| 20260508075059 | 11 | 0 | 0.0 | 1.6 | 0.00 | 0.28 | 0.00 | 80 | 1016.4 |
| 20260508074607 | 11 | 0 | 0.0 | 1.6 | 0.00 | 0.28 | 0.00 | 80 | 1016.4 |
| 20260508074057 | 11 | 0 | 0.0 | 0.0 | 0.00 | 0.28 | 0.00 | 81 | 1016.3 |
| 20260508073557 | 11 | 0 | 0.0 | 0.0 | 0.00 | 0.28 | 0.00 | 80 | 1016.4 |
| 20260508073057 | 11 | 0 | 0.0 | 0.0 | 0.00 | 0.28 | 0.00 | 79 | 1016.4 |
| 20260508072557 | 11 | 0 | 0.0 | 0.0 | 0.00 | 0.28 | 0.00 | 74 | 1016.4 |
| 20260508072101 | 11 | 0 | 0.0 | 0.0 | 0.00 | 0.28 | 0.00 | 73 | 1016.3 |
| 20260508071558 | 11 | 0 | 0.0 | 0.0 | 0.00 | 0.28 | 0.00 | 73 | 1016.3 |
| 20260508071056 | 11 | 0 | 0.0 | 0.0 | 0.00 | 0.28 | 0.00 | 73 | 1016.3 |
| 20260508070557 | 11 | 0 | 0.0 | 0.0 | 0.00 | 0.28 | 0.00 | 72 | 1016.4 |
| 20260508070058 | 11 | 0 | 0.0 | 0.0 | 0.00 | 0.28 | 0.00 | 72 | 1016.4 |
| 20260508065556 | 11 | 0 | 0.0 | 3.2 | 0.00 | 0.28 | 0.00 | 72 | 1016.3 |
| 20260508065057 | 11 | 0 | 0.0 | 3.2 | 0.00 | 0.28 | 0.00 | 72 | 1016.3 |
| 20260508064611 | 11 | 0 | 0.0 | 3.2 | 0.00 | 0.28 | 0.00 | 72 | 1016.3 |
| 20260508064056 | 11 | 311 | 1.6 | 3.2 | 0.00 | 0.28 | 0.00 | 73 | 1016.3 |
| 20260508063557 | 11 | 310 | 0.0 | 3.2 | 0.00 | 0.28 | 0.00 | 73 | 1016.3 |
| 20260508063101 | 11 | 311 | 1.6 | 3.2 | 0.00 | 0.28 | 0.00 | 73 | 1016.3 |
| 20260508062557 | 11 | 311 | 0.0 | 4.8 | 0.00 | 0.28 | 0.00 | 73 | 1016.4 |
| 20260508062057 | 11 | 311 | 0.0 | 4.8 | 0.00 | 0.28 | 0.00 | 73 | 1016.2 |
| 20260508061605 | 11 | 250 | 1.6 | 4.8 | 0.00 | 0.28 | 0.00 | 74 | 1016.3 |
| 20260508061057 | 11 | 250 | 1.6 | 4.8 | 0.00 | 0.28 | 0.00 | 74 | 1016.2 |
| 20260508060558 | 11 | 250 | 1.6 | 3.2 | 0.00 | 0.28 | 0.00 | 75 | 1016.2 |
| 20260508060120 | 11 | 250 | 0.0 | 3.2 | 0.00 | 0.28 | 0.00 | 74 | 1016.3 |
| 20260508055557 | 10 | 250 | 0.0 | 3.2 | 0.00 | 0.46 | 0.00 | 75 | 1016.4 |
| 20260508055056 | 10 | 0 | 0.0 | 3.2 | 0.00 | 0.46 | 0.00 | 76 | 1016.4 |
| 20260508054640 | 10 | 0 | 0.0 | 1.6 | 0.00 | 0.46 | 0.00 | 77 | 1016.3 |
| 20260508054059 | 10 | 0 | 0.0 | 0.0 | 0.00 | 0.46 | 0.00 | 77 | 1016.5 |
| 20260508053559 | 10 | 0 | 0.0 | 0.0 | 0.00 | 0.46 | 0.00 | 78 | 1016.4 |
| 20260508053058 | 10 | 0 | 0.0 | 0.0 | 0.00 | 0.46 | 0.00 | 78 | 1016.5 |
| 20260508052559 | 10 | 0 | 0.0 | 0.0 | 0.00 | 0.46 | 0.00 | 79 | 1016.6 |
| 20260508052059 | 10 | 0 | 0.0 | 0.0 | 0.00 | 0.46 | 0.00 | 79 | 1016.6 |
| 20260508051559 | 10 | 0 | 0.0 | 0.0 | 0.00 | 0.46 | 0.00 | 78 | 1016.6 |
| 20260508051058 | 10 | 0 | 0.0 | 0.0 | 0.00 | 0.46 | 0.00 | 78 | 1016.5 |
| 20260508050559 | 11 | 0 | 0.0 | 0.0 | 0.00 | 0.46 | 0.00 | 77 | 1016.3 |
| 20260508050059 | 11 | 0 | 0.0 | 0.0 | 0.00 | 0.46 | 0.00 | 78 | 1016.3 |
| 20260508045558 | 11 | 0 | 0.0 | 0.0 | 0.00 | 0.46 | 0.00 | 78 | 1016.2 |
| 20260508045058 | 11 | 0 | 0.0 | 0.0 | 0.00 | 0.46 | 0.00 | 79 | 1016.2 |
| 20260508044556 | 11 | 0 | 0.0 | 0.0 | 0.00 | 0.46 | 0.00 | 79 | 1016.2 |
| 20260508044059 | 11 | 0 | 0.0 | 0.0 | 0.00 | 0.46 | 0.00 | 79 | 1016.2 |
| 20260508043556 | 11 | 0 | 0.0 | 1.6 | 0.00 | 0.46 | 0.00 | 80 | 1016.1 |
| 20260508043100 | 11 | 0 | 0.0 | 1.6 | 0.00 | 0.46 | 0.00 | 81 | 1016.0 |
| 20260508042556 | 11 | 0 | 0.0 | 1.6 | 0.00 | 0.46 | 0.00 | 81 | 1016.0 |
| 20260508042101 | 11 | 250 | 0.0 | 1.6 | 0.00 | 0.46 | 0.00 | 81 | 1016.0 |
| 20260508041600 | 11 | 0 | 0.0 | 1.6 | 0.00 | 0.46 | 0.00 | 82 | 1015.9 |
| 20260508041057 | 11 | 0 | 0.0 | 3.2 | 0.00 | 0.46 | 0.00 | 83 | 1016.0 |
| 20260508040557 | 11 | 0 | 0.0 | 3.2 | 0.00 | 0.46 | 0.00 | 84 | 1015.9 |
| 20260508040058 | 11 | 0 | 0.0 | 3.2 | 0.00 | 0.46 | 0.00 | 84 | 1015.9 |
| 20260508035557 | 10 | 0 | 0.0 | 1.6 | 0.00 | 0.51 | 0.46 | 84 | 1015.7 |
| 20260508035057 | 10 | 0 | 0.0 | 1.6 | 0.00 | 0.51 | 0.46 | 84 | 1015.7 |
| 20260508034556 | 10 | 0 | 0.0 | 1.6 | 0.00 | 0.51 | 0.46 | 84 | 1015.7 |
| 20260508034054 | 10 | 0 | 0.0 | 1.6 | 0.00 | 0.51 | 0.46 | 85 | 1015.7 |
| 20260508033557 | 10 | 250 | 0.0 | 1.6 | 0.00 | 0.51 | 0.46 | 85 | 1015.7 |
| 20260508033058 | 10 | 0 | 0.0 | 0.0 | 0.00 | 0.51 | 0.46 | 86 | 1015.6 |
| 20260508032558 | 10 | 0 | 0.0 | 1.6 | 0.00 | 0.51 | 0.46 | 87 | 1015.7 |
| 20260508032058 | 10 | 0 | 0.0 | 1.6 | 0.00 | 0.51 | 0.46 | 87 | 1015.7 |
| 20260508031601 | 10 | 0 | 0.0 | 1.6 | 0.00 | 0.51 | 0.46 | 87 | 1015.7 |
| 20260508031058 | 10 | 0 | 0.0 | 1.6 | 0.00 | 0.51 | 0.46 | 88 | 1015.7 |
| 20260508030559 | 10 | 0 | 0.0 | 1.6 | 0.00 | 0.51 | 0.46 | 89 | 1015.6 |
| 20260508030108 | 11 | 0 | 0.0 | 0.0 | 0.00 | 0.51 | 0.46 | 89 | 1015.6 |
| 20260508025558 | 11 | 0 | 0.0 | 0.0 | 0.00 | 0.53 | 0.46 | 90 | 1015.8 |
| 20260508025059 | 11 | 0 | 0.0 | 0.0 | 0.00 | 0.53 | 0.46 | 90 | 1015.7 |